DW1437 Weather Reports


time (UTC)temp
C
wind
direction
speed
KPH
gust
KPH
rain 1hr
cm
rain 24hr
cm
rain mn
cm
humidity
%
barometer
mb
20260901020507 9 216 0.0 0.0 0.00 0.00 0.00 93 1019.2
20260901014357 10 216 0.0 0.0 0.00 0.00 0.00 93 1019.3
20260901013409 10 216 0.0 0.0 0.00 0.00 0.00 94 1019.3
20260901012418 10 216 0.0 0.0 0.00 0.00 0.00 94 1019.2
20260901010254 10 216 0.0 0.0 0.00 0.00 0.00 92 1019.1
20260901005301 10 216 0.0 0.0 0.00 0.00 0.00 93 1019.0
20260901004242 10 216 0.0 0.0 0.00 0.00 0.00 92 1019.0
20260901003220 10 216 0.0 0.0 0.00 0.00 0.00 92 1019.1
20260901002226 10 216 0.0 0.0 0.00 0.00 0.00 92 1019.1
20260901001209 10 216 0.0 0.0 0.00 0.00 0.00 92 1019.1
20260901000218 10 216 0.0 0.0 0.00 0.03 0.00 92 1019.1
20260831235151 10 216 0.0 0.0 0.00 0.03 0.00 91 1019.0
20260831234138 11 216 0.0 0.0 0.00 0.05 0.00 91 1019.1
20260831233201 11 216 0.0 0.0 0.00 0.05 0.00 91 1019.1
20260831232133 11 216 0.0 0.0 0.00 0.05 0.00 91 1019.0
20260831231118 11 216 0.0 0.0 0.00 0.08 0.00 91 1019.0
20260831230123 11 216 0.0 0.0 0.00 0.08 0.00 90 1018.8
20260831225100 11 216 0.0 0.0 0.00 0.18 0.08 90 1018.9
20260831224043 11 217 0.0 0.0 0.00 0.41 0.08 90 1018.9
20260831223026 12 216 0.0 0.0 0.00 0.79 0.08 90 1018.8
20260831222048 12 216 0.0 0.0 0.00 0.81 0.08 90 1018.8
20260831221028 12 217 0.0 0.0 0.00 0.81 0.08 89 1018.8
20260831214839 12 217 0.0 0.0 0.00 0.86 0.08 88 1018.7
20260831213900 12 217 0.0 0.0 0.00 0.86 0.08 87 1018.7
20260831212832 12 217 0.0 0.0 0.00 0.86 0.08 86 1018.7
20260831211849 12 217 0.0 0.0 0.00 0.86 0.08 86 1018.6
20260831210906 12 217 0.0 0.0 0.00 0.86 0.08 85 1018.5
20260831205851 13 225 0.0 0.0 0.00 0.86 0.08 85 1018.5
20260831204908 13 225 0.0 3.2 0.00 0.86 0.08 85 1018.5
20260831203909 13 225 0.0 4.8 0.00 0.86 0.08 86 1018.4
20260831202909 13 224 0.0 0.0 0.00 0.86 0.08 85 1018.3
20260831201910 13 224 0.0 4.8 0.00 0.86 0.08 85 1018.3
20260831200912 13 266 0.0 0.0 0.00 0.86 0.08 85 1018.2
20260831195845 13 265 0.0 1.6 0.00 0.86 0.08 84 1018.0
20260831194908 13 266 0.0 1.6 0.00 0.86 0.08 83 1018.0
20260831193849 14 266 0.0 0.0 0.00 0.86 0.08 83 1017.9
20260831192900 14 278 0.0 0.0 0.00 0.89 0.08 83 1017.7
20260831191827 14 278 0.0 1.6 0.00 0.94 0.08 82 1017.6
20260831185633 15 313 0.0 0.0 0.00 1.02 0.08 80 1017.5
20260831184635 15 313 0.0 0.0 0.00 1.07 0.08 80 1017.4
20260831182517 15 275 1.6 8.0 0.00 1.09 0.08 79 1017.1
20260831175237 16 220 3.2 16.1 0.00 1.42 0.08 77 1016.9
20260831174255 16 306 4.8 16.1 0.00 1.45 0.08 76 1016.7
20260831173309 16 294 4.8 12.9 0.00 1.45 0.08 75 1016.6
20260831172322 16 301 4.8 16.1 0.00 1.45 0.08 74 1016.5
20260831165106 17 281 4.8 16.1 0.00 1.45 0.08 73 1016.1
20260831164037 17 256 6.4 17.7 0.00 1.45 0.08 74 1016.0
20260831163005 17 268 8.0 20.9 0.00 1.45 0.08 74 1016.1
20260831161947 17 309 9.7 24.1 0.00 1.45 0.08 74 1016.1
20260831160927 17 323 8.0 24.1 0.00 1.45 0.08 74 1016.0
20260831155914 17 271 8.0 24.1 0.00 1.45 0.08 74 1015.9
20260831152650 18 243 8.0 19.3 0.00 1.73 0.08 72 1015.5
20260831151655 18 302 8.0 22.5 0.00 1.88 0.08 71 1015.5
20260831145601 19 235 4.8 20.9 0.00 2.16 0.08 70 1015.0
20260831144559 19 298 8.0 20.9 0.00 2.16 0.08 69 1014.9
20260831143543 19 298 8.0 22.5 0.00 2.16 0.08 69 1014.7
20260831142514 18 280 9.7 22.5 0.00 2.16 0.08 70 1014.5
20260831141532 19 312 6.4 22.5 0.00 2.16 0.08 72 1014.3
20260831140507 19 277 8.0 22.5 0.00 2.16 0.08 71 1014.2
20260831135508 20 277 6.4 20.9 0.00 2.16 0.08 70 1014.1
20260831134517 20 291 8.0 22.5 0.00 2.16 0.08 67 1014.0
20260831133457 20 244 8.0 30.6 0.00 2.16 0.08 68 1013.8
20260831131410 20 278 11.3 25.7 0.00 2.16 0.08 70 1013.6
20260831130348 20 252 9.7 20.9 0.00 2.16 0.08 70 1013.4
20260831125340 20 279 11.3 24.1 0.00 2.16 0.08 71 1013.2
20260831124355 20 296 8.0 25.7 0.00 2.16 0.08 69 1013.1
20260831123417 20 246 11.3 25.7 0.00 2.16 0.08 70 1012.9
20260831122347 21 329 9.7 22.5 0.00 2.16 0.08 71 1012.8
20260831121354 20 292 11.3 24.1 0.00 2.16 0.08 71 1012.6
20260831115248 20 327 9.7 30.6 0.00 2.16 0.08 73 1012.3
20260831114248 20 275 3.2 19.3 0.00 2.16 0.08 75 1012.1
20260831113301 20 317 4.8 17.7 0.00 2.16 0.08 76 1012.1
20260831112259 20 229 6.4 17.7 0.00 2.16 0.08 77 1011.9
20260831111228 19 303 4.8 16.1 0.00 2.16 0.08 77 1011.6
20260831105043 18 305 6.4 14.5 0.00 2.18 0.08 78 1011.2
20260831104047 18 283 4.8 16.1 0.00 2.18 0.08 79 1011.3
20260831103111 18 313 8.0 16.1 0.00 2.18 0.08 80 1011.2
20260831102111 18 290 6.4 12.9 0.00 2.18 0.08 81 1011.1
20260831101128 18 300 6.4 12.9 0.00 2.18 0.08 81 1011.0
20260831100144 18 304 4.8 12.9 0.00 2.18 0.08 84 1010.8
20260831095128 17 261 4.8 12.9 0.00 2.18 0.08 86 1010.7
20260831094103 17 269 6.4 16.1 0.00 2.18 0.08 86 1010.4
20260831093046 17 246 4.8 16.1 0.00 2.18 0.08 87 1010.4
20260831092045 17 296 4.8 12.9 0.00 2.18 0.08 88 1010.3
20260831091030 17 231 4.8 20.9 0.00 2.18 0.08 90 1010.1
20260831084853 16 258 6.4 12.9 0.00 2.18 0.08 94 1009.7
20260831083902 16 246 3.2 12.9 0.00 2.18 0.08 96 1009.5
20260831082848 15 277 4.8 19.3 0.00 2.18 0.08 96 1009.2
20260831080709 15 280 3.2 8.0 0.00 2.18 0.08 97 1009.0
20260831075659 15 304 3.2 8.0 0.00 2.18 0.08 97 1008.9
20260831074626 15 262 3.2 9.7 0.00 2.18 0.08 97 1008.6
20260831073633 15 267 3.2 9.7 0.00 2.18 0.08 97 1008.4
20260831072622 14 250 1.6 4.8 0.00 2.18 0.08 98 1008.2
20260831071558 13 226 0.0 4.8 0.00 2.18 0.08 97 1008.0
20260831070604 13 227 0.0 0.0 0.00 2.18 0.08 98 1007.8
20260831064446 12 227 0.0 0.0 0.00 2.18 0.08 97 1007.5
20260831062331 11 227 0.0 1.6 0.00 2.18 0.08 97 1007.2
20260831061341 11 227 0.0 0.0 0.00 2.18 0.08 97 1007.1
20260831052843 11 227 0.0 3.2 0.00 2.18 0.08 97 1006.2
20260831050735 12 227 0.0 3.2 0.00 2.18 0.08 96 1005.8
20260831044700 12 227 0.0 1.6 0.00 2.16 0.08 97 1005.5
20260831043638 12 226 0.0 0.0 0.00 2.16 0.08 96 1005.4
20260831042634 12 226 0.0 3.2 0.00 2.16 0.08 96 1005.3
20260831041634 12 224 0.0 0.0 0.00 2.16 0.08 96 1005.3
20260831035555 12 224 0.0 0.0 0.00 2.16 0.08 96 1005.2
20260831034541 12 224 1.6 3.2 0.00 2.16 0.08 96 1005.2
20260831033538 11 224 0.0 3.2 0.00 2.16 0.08 96 1005.0
20260831032520 11 224 0.0 0.0 0.00 2.16 0.08 95 1005.0
20260831031458 11 224 0.0 0.0 0.00 2.16 0.08 96 1004.9
20260831030511 12 224 1.6 4.8 0.00 2.16 0.08 96 1004.8
20260831025505 11 224 0.0 4.8 0.00 2.16 0.08 96 1004.8
20260831024503 12 223 0.0 0.0 0.00 2.16 0.08 96 1004.6
20260831023506 12 223 0.0 3.2 0.00 2.16 0.08 96 1004.6
20260831022444 12 278 0.0 3.2 0.00 2.16 0.08 96 1004.5
20260831021423 12 278 0.0 0.0 0.00 2.16 0.08 96 1004.3